OPS 4682 DEB, 18427

Orbit data source: Space-Track

OPS 4682 DEB, 18427 is space debris in LEO originally from a launch on Sat, 03 Apr 1965 UTC launched from the Air Force Western Test Range (AFWTR). Debris objects in space refer to the collection of defunct objects orbiting the Earth. Examples of debris include non-operational satellites, rocket bodies, and fragments generated from explosions, collisions, or faulty payload assembly.

Loading next visibility...
Identifier
18427, 1965-027AB
Orbit
LEO
Country
Flag of USUS
Related business
Manufacturer
Unknown
Mission
Spacecraft
Bus & Motor
Unknown
Mass
Unknown
Launch date (UTC)
1965-04-03 (61 years ago)
Launch vehicle
Unknown
Launch site
Air Force Western Test Range (AFWTR)
Object type
Payload
Rocket body
Debris
Shape & HBR
Unknown shape, 0.1 m
Radar Cross Section
Medium (>0.1 m² and <1 m²)

Expand to show TLE details & history
Last TLE update: 21 hours ago

TLE from 21 hours ago
0 OPS 4682 DEB
1 18427U 65027AB  26235.32003722 -.00000326  00000-0 -10324-2 0  9994
2 18427  90.2844   6.4120 0018943  58.7186 329.6585 13.05003630967094
Epoch: 2026-08-23T07:40Z
TLE epoch observation values (Epoch: 2026-08-23T07:40:51.215Z)
Latitude
28.30647°
Longitude
-80.57159°
Altitude
1,233.588 km
Speed
7.246 km/s
True Right ascension
00h 25m 02s
True Declination
28° 10' 20"
Sunlit
Object was in full shadow at epoch
Visualization orbit readout
Latitude
Unknown
Longitude
Unknown
Altitude
Unknown
Speed
Unknown
Apparent Right ascension
Unknown
Apparent Declination
Unknown
Sunlit
N/A
Visualization observer readout
Local Sidereal Time
19:34:22
Azimuth
Unknown
Elevation
Unknown
Doppler factor
Unknown
Orbital elements
Apogee altitude
1,254.095 km
Perigee altitude
1,225.234 km
Semi-major axis
7,617.801 km
Eccentricity
0.00189
Inclination
90.2844°
RAAN
6.412°
Arg. of periapsis
58.7186°
True anomaly
329.54862°
Mean anomaly
329.6585°
Eccentric anomaly
329.60358°
Mean motion
3.26436 °/min
Orbital period
110.28 mins
BSTAR
-0.0010324
Loading maneuver chart data...
Computing Atmospheric mass density...
Loading historical data...
Loading historical data...
Loading historical data...
Loading historical data...
Loading historical data...
Loading historical data...
Loading historical data...

Documentation

Showing up to 5 results
|